Weather History for EBCV - September, 2013

Change the Weather History Date:

Sunday, September 15, 2013

  Actual Average Record
Temperature  
Mean Temperature 54 °F -  
Max Temperature 62 °F 58 °F 69 °F (2007)
Min Temperature 47 °F 48 °F 42 °F (1997)
Degree Days  
Heating Degree Days 10    
Growing Degree Days 4 (Base 50)    
Moisture  
Dew Point 49 °F    
Average Humidity 88    
Maximum Humidity 100    
Minimum Humidity 46    
Precipitation  
Precipitation 0.24 in - - ()
Sea Level Pressure  
Sea Level Pressure 29.91 in    
Wind  
Wind Speed 4 mph ()    
Max Wind Speed 18 mph    
Max Gust Speed -    
Visibility 5.6 miles    
Events      
Averages and records for this station are not official NWS values.
T = Trace of Precipitation, MM = Missing Value Source: Averaged Metar Reports

Daily Weather History Graph

Daily Weather History Graph

Search for Another Location

Airport or City:

Trip Planner

Search our weather history database for the weather conditions in past years. The results will help you decide how hot, cold, wet, or windy it might be!

Date:

Astronomy

Sep. 15, 2013 Rise Set
Actual Time 7:20 AM CEST 7:58 PM CEST
Civil Twilight 6:47 AM CEST 8:31 PM CEST
Nautical Twilight 6:07 AM CEST 9:10 PM CEST
Astronomical Twilight 5:26 AM CEST 9:51 PM CEST
Moon 5:33 PM CEST (9/15) 2:17 AM CEST (9/15)
Length of Visible Light 13h 44m
Length of Day
12h 38m
Waxing Gibbous, 79% of the Moon is Illuminated
Sep 15
Waxing Gibbous
Sep 19
Full
Sep 27
Last Quarter
Oct 5
New
Oct 12
First Quarter

Hourly Weather History & Observations

Time (CEST) Temp. Dew Point Humidity Pressure Visibility Wind Dir Wind Speed Gust Speed Precip Events Conditions
12:25 AM 53.6 °F 51.8 °F 94% 29.98 in 6.2 mi North 3.5 mph - N/A   Overcast
12:47 AM 53.6 °F 51.8 °F 94% 29.98 in 4.3 mi Variable 2.3 mph - N/A   Mostly Cloudy
1:04 AM 51.8 °F 51.8 °F 100% 29.98 in 6.2 mi North 3.5 mph - N/A   Mostly Cloudy
1:25 AM 51.8 °F 50.0 °F 94% 29.98 in 6.2 mi North 4.6 mph - N/A   Unknown
2:00 AM 51 °F 49 °F 92% 29.99 in 6 mi North 4.5 mph - -  
2:13 AM 50.0 °F 48.2 °F 94% 29.98 in 4.3 mi North 5.8 mph - N/A   Unknown
2:25 AM 50.0 °F 48.2 °F 94% 29.98 in 6.2 mi North 4.6 mph - N/A   Unknown
2:53 AM 48.2 °F 48.2 °F 100% 29.98 in 4.3 mi Variable 2.3 mph - N/A   Unknown
3:04 AM 50.0 °F 48.2 °F 94% 29.98 in 6.2 mi Variable 2.3 mph - N/A   Unknown
3:25 AM 48.2 °F 48.2 °F 100% 29.98 in 5.0 mi Variable 2.3 mph - N/A   Scattered Clouds
3:38 AM 48.2 °F 48.2 °F 100% 29.98 in 3.7 mi Variable 1.2 mph - N/A   Mostly Cloudy
4:06 AM 50.0 °F 48.2 °F 94% 29.98 in 5.6 mi Variable 1.2 mph - N/A   Mostly Cloudy
4:08 AM 48.2 °F 48.2 °F 100% 29.98 in 3.7 mi Variable 1.2 mph - N/A   Mostly Cloudy
4:22 AM 50.0 °F 48.2 °F 94% 29.98 in 5.6 mi Variable 2.3 mph - N/A   Mostly Cloudy
4:24 AM 50.0 °F 50.0 °F 100% 29.98 in 4.3 mi Variable 1.2 mph - N/A   Overcast
4:25 AM 50.0 °F 48.2 °F 94% 29.98 in 5.6 mi Variable 1.2 mph - N/A   Mostly Cloudy
4:45 AM 50.0 °F 48.2 °F 94% 29.98 in 4.3 mi Variable 1.2 mph - N/A   Mostly Cloudy
5:07 AM 50.0 °F 50.0 °F 100% 29.98 in 5.0 mi Variable 2.3 mph - N/A   Mostly Cloudy
5:17 AM 50.0 °F 50.0 °F 100% 29.98 in 4.3 mi Variable 1.2 mph - N/A   Mostly Cloudy
5:25 AM 50.0 °F 48.2 °F 94% 29.98 in 4.3 mi Variable 2.3 mph - N/A   Mostly Cloudy
6:12 AM 48.2 °F 48.2 °F 100% 29.95 in 2.8 mi Variable 1.2 mph - N/A   Partly Cloudy
6:15 AM 48.2 °F 48.2 °F 100% 29.95 in - Variable 1.2 mph - N/A   Partly Cloudy
6:25 AM 48.2 °F 48.2 °F 100% 29.95 in 3.7 mi Variable 2.3 mph - N/A   Unknown
6:35 AM 48.2 °F 48.2 °F 100% 29.95 in - Variable 2.3 mph - N/A   Unknown
6:45 AM 48.2 °F 48.2 °F 100% 29.95 in 0.9 mi Variable 2.3 mph - N/A   Partly Cloudy
7:07 AM 48.2 °F 48.2 °F 100% 29.95 in 3.1 mi Variable 1.2 mph - N/A   Mostly Cloudy
7:25 AM 48.2 °F 48.2 °F 100% 29.95 in 4.3 mi Variable 2.3 mph - N/A   Mostly Cloudy
7:53 AM 50.0 °F 50.0 °F 100% 29.95 in 5.6 mi Variable 2.3 mph - N/A   Mostly Cloudy
8:00 AM 50 °F 49 °F 97% 29.97 in 5 mi 2.2 mph - -   Mostly Cloudy
8:04 AM 50.0 °F 50.0 °F 100% 29.95 in 4.3 mi Variable 2.3 mph - N/A   Overcast
8:22 AM 50.0 °F 50.0 °F 100% 29.95 in 6.2 mi Variable 2.3 mph - N/A   Overcast
8:25 AM 50.0 °F 50.0 °F 100% 29.95 in 5.6 mi Variable 1.2 mph - N/A   Overcast
9:25 AM 53.6 °F 51.8 °F 94% 29.95 in 6.2 mi Variable 2.3 mph - N/A   Overcast
9:40 AM 53.6 °F 51.8 °F 94% 29.95 in 3.7 mi Variable 2.3 mph - N/A   Overcast
9:41 AM 53.6 °F 51.8 °F 94% 29.95 in 1.1 mi Variable 2.3 mph - N/A   Overcast
9:52 AM 53.6 °F 51.8 °F 94% 29.95 in 5.0 mi Variable 3.5 mph - N/A   Mostly Cloudy
10:25 AM 53.6 °F 51.8 °F 94% 29.95 in 6.2 mi West 6.9 mph - N/A   Mostly Cloudy
11:00 AM 55 °F 50 °F 78% 29.98 in 10 mi West 4.5 mph - -   Scattered Clouds
11:15 AM 55.4 °F 50.0 °F 82% 29.95 in 4.3 mi West 5.8 mph - N/A   Overcast
11:25 AM 57.2 °F 50.0 °F 77% 29.95 in 6.2 mi West 5.8 mph - N/A   Mostly Cloudy
11:26 AM 57.2 °F 50.0 °F 77% 29.95 in 6.2 mi West 4.6 mph - N/A   Overcast
12:25 PM 57.2 °F 50.0 °F 77% 29.92 in 6.2 mi West 8.1 mph - N/A   Mostly Cloudy
1:25 PM 59.0 °F 51.8 °F 77% 29.92 in 6.2 mi WSW 6.9 mph - N/A   Mostly Cloudy
2:00 PM 60 °F 45 °F 46% 29.91 in 15 mi West 11.2 mph - -   Scattered Clouds
2:25 PM 62.6 °F 44.6 °F 52% 29.89 in 6.2 mi West 11.5 mph - N/A   Partly Cloudy
3:25 PM 60.8 °F 44.6 °F 55% 29.86 in 6.2 mi WSW 12.7 mph - N/A   Mostly Cloudy
4:25 PM 60.8 °F 46.4 °F 59% 29.83 in 6.2 mi WSW 13.8 mph - N/A   Mostly Cloudy
5:00 PM 60 °F 47 °F 52% 29.84 in 17 mi WSW 8.9 mph - -   Scattered Clouds
5:25 PM 59.0 °F 46.4 °F 63% 29.83 in 6.2 mi WSW 9.2 mph - N/A   Mostly Cloudy
6:25 PM 59.0 °F 48.2 °F 67% 29.80 in 6.2 mi SW 9.2 mph - N/A   Mostly Cloudy
7:25 PM 59.0 °F 48.2 °F 67% 29.77 in 6.2 mi SW 10.4 mph - N/A   Mostly Cloudy
8:00 PM 58 °F 49 °F 62% 29.77 in 28 mi SW 13.4 mph - -   Clear
8:25 PM 57.2 °F 48.2 °F 72% 29.77 in 6.2 mi SW 12.7 mph - N/A   Mostly Cloudy
8:51 PM 57.2 °F 48.2 °F 72% 29.74 in 4.3 mi SSW 13.8 mph - N/A   Mostly Cloudy
9:04 PM 55.4 °F 50.0 °F 82% 29.74 in 6.2 mi SSW 12.7 mph - N/A   Mostly Cloudy
9:09 PM 55.4 °F 50.0 °F 82% 29.74 in 4.3 mi SSW 12.7 mph - N/A   Overcast
9:20 PM 55.4 °F 51.8 °F 88% 29.74 in 6.2 mi SSW 15.0 mph - N/A   Mostly Cloudy
9:25 PM 55.4 °F 51.8 °F 88% 29.74 in 6.2 mi SSW 12.7 mph - N/A   Overcast
10:25 PM 53.6 °F 51.8 °F 94% 29.71 in 5.0 mi SSW 15.0 mph - N/A   Mostly Cloudy
11:25 PM 53.6 °F 51.8 °F 94% 29.68 in 6.2 mi SSW 18.4 mph - N/A   Overcast
11:45 PM 53.6 °F 51.8 °F 94% 29.68 in 4.3 mi SSW 18.4 mph - N/A   Mostly Cloudy